Details for FedEx at PANC




Go Back


Latest METAR
Local Time

PANC 250453Z 16017G25KT 10SM FEW060 SCT120 BKN200 11/02 A2976 RMK AO2 PK WND 15028/0400 SLP077 SH DSNT N T01110017 $

24/05/2018, 21:09:22

Description
Results
FedEx Logo
Number of Pilots based at PANC
0 Pilots Based here
Number of FedEx Flights Departed from PANC
0 Flights Departed
Number of FedEx Flights Arrived at PANC
0 Flights Arrived
Number of FedEx Schedules Departing from PANC
69 Schedules
Number of FedEx Schedules Arriving at PANC
68 Schedules
Number of FedEx Schedules Departing from PANC availible today
15 Schedules Today
Number of FedEx Schedules Arriving at PANC availible today
15 Schedules Today
Average Landing Rate at PANC
-255 fpm
FedEx Average Landing Rate at PANC
0 fpm
Total Fuel Purchased at PANC by FedEx
0.00 kgs / 0.00 lbs

Pilots Based at PANC


Pilot ID
Pilot Name
Pilot Rank
No. of Flights
No. of Flying Hours
There are no pilots assigned to this hub!   Will you be the first?
Content